owner,sensor,date,latitude,longitude,air_temperature,qcFlag 
WAVCIS,ioos:station:WAVCIS:CSI16:1,2011-11-01T00:00:00Z,29.4012,-89.0355,26.05,11111222 
WAVCIS,ioos:station:WAVCIS:CSI16:1,2011-11-01T01:00:00Z,29.4012,-89.0355,25.12,11111222 
WAVCIS,ioos:station:WAVCIS:CSI16:1,2011-11-01T02:00:00Z,29.4012,-89.0355,27.29,11111222 
WAVCIS,ioos:station:WAVCIS:CSI16:1,2011-11-01T03:00:00Z,29.4012,-89.0355,28.15,11111222 
WAVCIS,ioos:station:WAVCIS:CSI16:1,2011-11-01T04:00:00Z,29.4012,-89.0355,28.55,11111222 
WAVCIS,ioos:station:WAVCIS:CSI16:1,2011-11-01T05:00:00Z,29.4012,-89.0355,24.82,11111222 
WAVCIS,ioos:station:WAVCIS:CSI16:1,2011-11-01T06:00:00Z,29.4012,-89.0355,22.86,11111222 
WAVCIS,ioos:station:WAVCIS:CSI16:1,2011-11-01T07:00:00Z,29.4012,-89.0355,23.04,11111222 
WAVCIS,ioos:station:WAVCIS:CSI16:1,2011-11-01T08:00:00Z,29.4012,-89.0355,22.26,11111222 
WAVCIS,ioos:station:WAVCIS:CSI16:1,2011-11-01T09:00:00Z,29.4012,-89.0355,22.18,11111222 
WAVCIS,ioos:station:WAVCIS:CSI16:1,2011-11-01T10:00:00Z,29.4012,-89.0355,22.14,11111222 
WAVCIS,ioos:station:WAVCIS:CSI16:1,2011-11-01T11:00:00Z,29.4012,-89.0355,21.63,11111222 
WAVCIS,ioos:station:WAVCIS:CSI16:1,2011-11-01T12:00:00Z,29.4012,-89.0355,21.48,11111222 
WAVCIS,ioos:station:WAVCIS:CSI16:1,2011-11-01T13:00:00Z,29.4012,-89.0355,22.01,11111222 
WAVCIS,ioos:station:WAVCIS:CSI16:1,2011-11-01T14:00:00Z,29.4012,-89.0355,22.48,11111222 
WAVCIS,ioos:station:WAVCIS:CSI16:1,2011-11-01T15:00:00Z,29.4012,-89.0355,22.22,11111222 
WAVCIS,ioos:station:WAVCIS:CSI16:1,2011-11-01T16:00:00Z,29.4012,-89.0355,21.51,11111222 
WAVCIS,ioos:station:WAVCIS:CSI16:1,2011-11-01T17:00:00Z,29.4012,-89.0355,21.3,11111222 
WAVCIS,ioos:station:WAVCIS:CSI16:1,2011-11-01T18:00:00Z,29.4012,-89.0355,21.11,11111222 
WAVCIS,ioos:station:WAVCIS:CSI16:1,2011-11-01T19:00:00Z,29.4012,-89.0355,20.97,11111222 
WAVCIS,ioos:station:WAVCIS:CSI16:1,2011-11-01T20:00:00Z,29.4012,-89.0355,20.73,11111222 
WAVCIS,ioos:station:WAVCIS:CSI16:1,2011-11-01T21:00:00Z,29.4012,-89.0355,20.69,11111222 
WAVCIS,ioos:station:WAVCIS:CSI16:1,2011-11-01T22:00:00Z,29.4012,-89.0355,20.64,11111222 
WAVCIS,ioos:station:WAVCIS:CSI16:1,2011-11-01T23:00:00Z,29.4012,-89.0355,20.38,11111222 
WAVCIS,ioos:station:WAVCIS:CSI16:1,2011-11-02T00:00:00Z,29.4012,-89.0355,20.33,11111222 
WAVCIS,ioos:station:WAVCIS:CSI16:1,2011-11-02T01:00:00Z,29.4012,-89.0355,21.01,11111222 
WAVCIS,ioos:station:WAVCIS:CSI16:1,2011-11-02T02:00:00Z,29.4012,-89.0355,21.15,11111222 
WAVCIS,ioos:station:WAVCIS:CSI16:1,2011-11-02T03:00:00Z,29.4012,-89.0355,20.86,11111222 
WAVCIS,ioos:station:WAVCIS:CSI16:1,2011-11-02T04:00:00Z,29.4012,-89.0355,20.77,11111222 
WAVCIS,ioos:station:WAVCIS:CSI16:1,2011-11-02T05:00:00Z,29.4012,-89.0355,20.75,11111222 
WAVCIS,ioos:station:WAVCIS:CSI16:1,2011-11-02T06:00:00Z,29.4012,-89.0355,20.64,11111222 
WAVCIS,ioos:station:WAVCIS:CSI16:1,2011-11-02T07:00:00Z,29.4012,-89.0355,20.57,11111222 
WAVCIS,ioos:station:WAVCIS:CSI16:1,2011-11-02T08:00:00Z,29.4012,-89.0355,20.53,11111222 
WAVCIS,ioos:station:WAVCIS:CSI16:1,2011-11-02T09:00:00Z,29.4012,-89.0355,20.38,11111222 
WAVCIS,ioos:station:WAVCIS:CSI16:1,2011-11-02T10:00:00Z,29.4012,-89.0355,20.64,11111222 
WAVCIS,ioos:station:WAVCIS:CSI16:1,2011-11-02T11:00:00Z,29.4012,-89.0355,20.75,11111222 
WAVCIS,ioos:station:WAVCIS:CSI16:1,2011-11-02T12:00:00Z,29.4012,-89.0355,20.84,11111222 
WAVCIS,ioos:station:WAVCIS:CSI16:1,2011-11-02T13:00:00Z,29.4012,-89.0355,21.21,11111222 
WAVCIS,ioos:station:WAVCIS:CSI16:1,2011-11-02T14:00:00Z,29.4012,-89.0355,21.16,11111222 
WAVCIS,ioos:station:WAVCIS:CSI16:1,2011-11-02T15:00:00Z,29.4012,-89.0355,22.68,11111222 
WAVCIS,ioos:station:WAVCIS:CSI16:1,2011-11-02T16:00:00Z,29.4012,-89.0355,24.2,11111222 
WAVCIS,ioos:station:WAVCIS:CSI16:1,2011-11-02T17:00:00Z,29.4012,-89.0355,22.64,11111222 
WAVCIS,ioos:station:WAVCIS:CSI16:1,2011-11-02T18:00:00Z,29.4012,-89.0355,21.83,11111222 
WAVCIS,ioos:station:WAVCIS:CSI16:1,2011-11-02T19:00:00Z,29.4012,-89.0355,25.62,11111222 
WAVCIS,ioos:station:WAVCIS:CSI16:1,2011-11-02T20:00:00Z,29.4012,-89.0355,22.22,11111222 
WAVCIS,ioos:station:WAVCIS:CSI16:1,2011-11-02T21:00:00Z,29.4012,-89.0355,22.03,11111222 
WAVCIS,ioos:station:WAVCIS:CSI16:1,2011-11-02T22:00:00Z,29.4012,-89.0355,21.94,11111222 
WAVCIS,ioos:station:WAVCIS:CSI16:1,2011-11-02T23:00:00Z,29.4012,-89.0355,21.92,11111222 
WAVCIS,ioos:station:WAVCIS:CSI16:1,2011-11-03T00:00:00Z,29.4012,-89.0355,22.11,11111222 
WAVCIS,ioos:station:WAVCIS:CSI16:1,2011-11-03T01:00:00Z,29.4012,-89.0355,22.46,11111222 
WAVCIS,ioos:station:WAVCIS:CSI16:1,2011-11-03T02:00:00Z,29.4012,-89.0355,22.52,11111222 
WAVCIS,ioos:station:WAVCIS:CSI16:1,2011-11-03T03:00:00Z,29.4012,-89.0355,22.45,11111222 
WAVCIS,ioos:station:WAVCIS:CSI16:1,2011-11-03T04:00:00Z,29.4012,-89.0355,22.21,11111222 
WAVCIS,ioos:station:WAVCIS:CSI16:1,2011-11-03T05:00:00Z,29.4012,-89.0355,22.09,11111222 
WAVCIS,ioos:station:WAVCIS:CSI16:1,2011-11-03T06:00:00Z,29.4012,-89.0355,22.0,11111222 
WAVCIS,ioos:station:WAVCIS:CSI16:1,2011-11-03T07:00:00Z,29.4012,-89.0355,21.96,11111222 
WAVCIS,ioos:station:WAVCIS:CSI16:1,2011-11-03T08:00:00Z,29.4012,-89.0355,21.96,11111222 
WAVCIS,ioos:station:WAVCIS:CSI16:1,2011-11-03T09:00:00Z,29.4012,-89.0355,22.11,11111222 
WAVCIS,ioos:station:WAVCIS:CSI16:1,2011-11-03T10:00:00Z,29.4012,-89.0355,21.58,11111222 
WAVCIS,ioos:station:WAVCIS:CSI16:1,2011-11-03T11:00:00Z,29.4012,-89.0355,21.86,11111222 
WAVCIS,ioos:station:WAVCIS:CSI16:1,2011-11-03T12:00:00Z,29.4012,-89.0355,21.48,11111222 
WAVCIS,ioos:station:WAVCIS:CSI16:1,2011-11-03T13:00:00Z,29.4012,-89.0355,21.72,11111222 
WAVCIS,ioos:station:WAVCIS:CSI16:1,2011-11-03T14:00:00Z,29.4012,-89.0355,21.19,11111222 
WAVCIS,ioos:station:WAVCIS:CSI16:1,2011-11-03T15:00:00Z,29.4012,-89.0355,20.74,11111222 
WAVCIS,ioos:station:WAVCIS:CSI16:1,2011-11-03T16:00:00Z,29.4012,-89.0355,21.8,11111222 
WAVCIS,ioos:station:WAVCIS:CSI16:1,2011-11-03T17:00:00Z,29.4012,-89.0355,22.36,11111222 
WAVCIS,ioos:station:WAVCIS:CSI16:1,2011-11-03T18:00:00Z,29.4012,-89.0355,23.0,11111222 
WAVCIS,ioos:station:WAVCIS:CSI16:1,2011-11-03T19:00:00Z,29.4012,-89.0355,19.88,11111222 
WAVCIS,ioos:station:WAVCIS:CSI16:1,2011-11-03T20:00:00Z,29.4012,-89.0355,16.84,11111222 
WAVCIS,ioos:station:WAVCIS:CSI16:1,2011-11-03T21:00:00Z,29.4012,-89.0355,16.03,11111222 
WAVCIS,ioos:station:WAVCIS:CSI16:1,2011-11-03T22:00:00Z,29.4012,-89.0355,16.19,11111222 
WAVCIS,ioos:station:WAVCIS:CSI16:1,2011-11-03T23:00:00Z,29.4012,-89.0355,16.47,11111222 
WAVCIS,ioos:station:WAVCIS:CSI16:1,2011-11-04T00:00:00Z,29.4012,-89.0355,16.57,11111222 
WAVCIS,ioos:station:WAVCIS:CSI16:1,2011-11-04T01:00:00Z,29.4012,-89.0355,16.0,11111222 
WAVCIS,ioos:station:WAVCIS:CSI16:1,2011-11-04T02:00:00Z,29.4012,-89.0355,15.62,11111222 
WAVCIS,ioos:station:WAVCIS:CSI16:1,2011-11-04T03:00:00Z,29.4012,-89.0355,15.41,11111222 
WAVCIS,ioos:station:WAVCIS:CSI16:1,2011-11-04T04:00:00Z,29.4012,-89.0355,15.06,11111222 
WAVCIS,ioos:station:WAVCIS:CSI16:1,2011-11-04T05:00:00Z,29.4012,-89.0355,14.55,11111222 
WAVCIS,ioos:station:WAVCIS:CSI16:1,2011-11-04T06:00:00Z,29.4012,-89.0355,13.97,11111222 
WAVCIS,ioos:station:WAVCIS:CSI16:1,2011-11-04T07:00:00Z,29.4012,-89.0355,13.85,11111222 
WAVCIS,ioos:station:WAVCIS:CSI16:1,2011-11-04T08:00:00Z,29.4012,-89.0355,13.69,11111222 
WAVCIS,ioos:station:WAVCIS:CSI16:1,2011-11-04T09:00:00Z,29.4012,-89.0355,13.52,11111222 
WAVCIS,ioos:station:WAVCIS:CSI16:1,2011-11-04T10:00:00Z,29.4012,-89.0355,13.27,11111222 
WAVCIS,ioos:station:WAVCIS:CSI16:1,2011-11-04T11:00:00Z,29.4012,-89.0355,12.8,11111222 
WAVCIS,ioos:station:WAVCIS:CSI16:1,2011-11-04T12:00:00Z,29.4012,-89.0355,12.37,11111222 
WAVCIS,ioos:station:WAVCIS:CSI16:1,2011-11-04T13:00:00Z,29.4012,-89.0355,12.11,11111222 
WAVCIS,ioos:station:WAVCIS:CSI16:1,2011-11-04T14:00:00Z,29.4012,-89.0355,11.96,11111222 
WAVCIS,ioos:station:WAVCIS:CSI16:1,2011-11-04T15:00:00Z,29.4012,-89.0355,11.86,11111222 
WAVCIS,ioos:station:WAVCIS:CSI16:1,2011-11-04T16:00:00Z,29.4012,-89.0355,14.13,11111222 
WAVCIS,ioos:station:WAVCIS:CSI16:1,2011-11-04T17:00:00Z,29.4012,-89.0355,13.46,11111222 
WAVCIS,ioos:station:WAVCIS:CSI16:1,2011-11-04T18:00:00Z,29.4012,-89.0355,14.01,11111222 
WAVCIS,ioos:station:WAVCIS:CSI16:1,2011-11-04T19:00:00Z,29.4012,-89.0355,16.46,11111222 
WAVCIS,ioos:station:WAVCIS:CSI16:1,2011-11-04T20:00:00Z,29.4012,-89.0355,15.75,11111222 
WAVCIS,ioos:station:WAVCIS:CSI16:1,2011-11-04T21:00:00Z,29.4012,-89.0355,13.95,11111222 
WAVCIS,ioos:station:WAVCIS:CSI16:1,2011-11-04T22:00:00Z,29.4012,-89.0355,14.16,11111222 
WAVCIS,ioos:station:WAVCIS:CSI16:1,2011-11-04T23:00:00Z,29.4012,-89.0355,14.49,11111222 
WAVCIS,ioos:station:WAVCIS:CSI16:1,2011-11-05T00:00:00Z,29.4012,-89.0355,15.91,11111222 
WAVCIS,ioos:station:WAVCIS:CSI16:1,2011-11-05T01:00:00Z,29.4012,-89.0355,16.32,11111222 
WAVCIS,ioos:station:WAVCIS:CSI16:1,2011-11-05T02:00:00Z,29.4012,-89.0355,19.94,11111222 
WAVCIS,ioos:station:WAVCIS:CSI16:1,2011-11-05T03:00:00Z,29.4012,-89.0355,21.71,11111222 
WAVCIS,ioos:station:WAVCIS:CSI16:1,2011-11-05T04:00:00Z,29.4012,-89.0355,23.99,11111222 
WAVCIS,ioos:station:WAVCIS:CSI16:1,2011-11-05T05:00:00Z,29.4012,-89.0355,23.97,11111222 
WAVCIS,ioos:station:WAVCIS:CSI16:1,2011-11-05T06:00:00Z,29.4012,-89.0355,23.02,11111222 
WAVCIS,ioos:station:WAVCIS:CSI16:1,2011-11-05T07:00:00Z,29.4012,-89.0355,23.03,11111222 
WAVCIS,ioos:station:WAVCIS:CSI16:1,2011-11-05T08:00:00Z,29.4012,-89.0355,19.65,11111222 
WAVCIS,ioos:station:WAVCIS:CSI16:1,2011-11-05T09:00:00Z,29.4012,-89.0355,19.83,11111222 
WAVCIS,ioos:station:WAVCIS:CSI16:1,2011-11-05T10:00:00Z,29.4012,-89.0355,17.86,11111222 
WAVCIS,ioos:station:WAVCIS:CSI16:1,2011-11-05T11:00:00Z,29.4012,-89.0355,18.86,11111222 
WAVCIS,ioos:station:WAVCIS:CSI16:1,2011-11-05T12:00:00Z,29.4012,-89.0355,18.14,11111222 
WAVCIS,ioos:station:WAVCIS:CSI16:1,2011-11-05T13:00:00Z,29.4012,-89.0355,18.25,11111222 
WAVCIS,ioos:station:WAVCIS:CSI16:1,2011-11-05T14:00:00Z,29.4012,-89.0355,18.7,11111222 
WAVCIS,ioos:station:WAVCIS:CSI16:1,2011-11-05T15:00:00Z,29.4012,-89.0355,19.19,11111222 
WAVCIS,ioos:station:WAVCIS:CSI16:1,2011-11-05T16:00:00Z,29.4012,-89.0355,19.95,11111222 
WAVCIS,ioos:station:WAVCIS:CSI16:1,2011-11-05T17:00:00Z,29.4012,-89.0355,22.81,11111222 
WAVCIS,ioos:station:WAVCIS:CSI16:1,2011-11-05T18:00:00Z,29.4012,-89.0355,20.72,11111222 
WAVCIS,ioos:station:WAVCIS:CSI16:1,2011-11-05T19:00:00Z,29.4012,-89.0355,20.39,11111222 
WAVCIS,ioos:station:WAVCIS:CSI16:1,2011-11-05T20:00:00Z,29.4012,-89.0355,20.3,11111222 
WAVCIS,ioos:station:WAVCIS:CSI16:1,2011-11-05T21:00:00Z,29.4012,-89.0355,20.16,11111222 
WAVCIS,ioos:station:WAVCIS:CSI16:1,2011-11-05T22:00:00Z,29.4012,-89.0355,20.07,11111222 
WAVCIS,ioos:station:WAVCIS:CSI16:1,2011-11-05T23:00:00Z,29.4012,-89.0355,19.57,11111222 
WAVCIS,ioos:station:WAVCIS:CSI16:1,2011-11-06T00:00:00Z,29.4012,-89.0355,19.46,11111222 
WAVCIS,ioos:station:WAVCIS:CSI16:1,2011-11-06T01:00:00Z,29.4012,-89.0355,19.54,11111222 
WAVCIS,ioos:station:WAVCIS:CSI16:1,2011-11-06T02:00:00Z,29.4012,-89.0355,19.74,11111222 
WAVCIS,ioos:station:WAVCIS:CSI16:1,2011-11-06T03:00:00Z,29.4012,-89.0355,19.97,11111222 
WAVCIS,ioos:station:WAVCIS:CSI16:1,2011-11-06T04:00:00Z,29.4012,-89.0355,20.13,11111222 
WAVCIS,ioos:station:WAVCIS:CSI16:1,2011-11-06T05:00:00Z,29.4012,-89.0355,20.1,11111222 
WAVCIS,ioos:station:WAVCIS:CSI16:1,2011-11-06T06:00:00Z,29.4012,-89.0355,20.4,11111222 
WAVCIS,ioos:station:WAVCIS:CSI16:1,2011-11-06T07:00:00Z,29.4012,-89.0355,20.58,11111222 
WAVCIS,ioos:station:WAVCIS:CSI16:1,2011-11-06T08:00:00Z,29.4012,-89.0355,20.74,11111222 
WAVCIS,ioos:station:WAVCIS:CSI16:1,2011-11-06T09:00:00Z,29.4012,-89.0355,21.02,11111222 
WAVCIS,ioos:station:WAVCIS:CSI16:1,2011-11-06T10:00:00Z,29.4012,-89.0355,21.45,11111222 
WAVCIS,ioos:station:WAVCIS:CSI16:1,2011-11-06T11:00:00Z,29.4012,-89.0355,21.76,11111222 
WAVCIS,ioos:station:WAVCIS:CSI16:1,2011-11-06T12:00:00Z,29.4012,-89.0355,21.87,11111222 
WAVCIS,ioos:station:WAVCIS:CSI16:1,2011-11-06T13:00:00Z,29.4012,-89.0355,21.68,11111222 
WAVCIS,ioos:station:WAVCIS:CSI16:1,2011-11-06T14:00:00Z,29.4012,-89.0355,21.89,11111222 
WAVCIS,ioos:station:WAVCIS:CSI16:1,2011-11-06T15:00:00Z,29.4012,-89.0355,21.25,11111222 
WAVCIS,ioos:station:WAVCIS:CSI16:1,2011-11-06T16:00:00Z,29.4012,-89.0355,20.9,11111222 
WAVCIS,ioos:station:WAVCIS:CSI16:1,2011-11-06T17:00:00Z,29.4012,-89.0355,20.51,11111222 
WAVCIS,ioos:station:WAVCIS:CSI16:1,2011-11-06T18:00:00Z,29.4012,-89.0355,21.08,11111222 
WAVCIS,ioos:station:WAVCIS:CSI16:1,2011-11-06T19:00:00Z,29.4012,-89.0355,21.01,11111222 
WAVCIS,ioos:station:WAVCIS:CSI16:1,2011-11-06T20:00:00Z,29.4012,-89.0355,21.02,11111222 
WAVCIS,ioos:station:WAVCIS:CSI16:1,2011-11-06T21:00:00Z,29.4012,-89.0355,21.24,11111222 
WAVCIS,ioos:station:WAVCIS:CSI16:1,2011-11-06T22:00:00Z,29.4012,-89.0355,21.27,11111222 
WAVCIS,ioos:station:WAVCIS:CSI16:1,2011-11-06T23:00:00Z,29.4012,-89.0355,21.08,11111222 
WAVCIS,ioos:station:WAVCIS:CSI16:1,2011-11-07T00:00:00Z,29.4012,-89.0355,21.08,11111222 
WAVCIS,ioos:station:WAVCIS:CSI16:1,2011-11-07T01:00:00Z,29.4012,-89.0355,21.09,11111222 
WAVCIS,ioos:station:WAVCIS:CSI16:1,2011-11-07T02:00:00Z,29.4012,-89.0355,21.2,11111222 
WAVCIS,ioos:station:WAVCIS:CSI16:1,2011-11-07T03:00:00Z,29.4012,-89.0355,21.58,11111222 
WAVCIS,ioos:station:WAVCIS:CSI16:1,2011-11-07T04:00:00Z,29.4012,-89.0355,21.91,11111222 
WAVCIS,ioos:station:WAVCIS:CSI16:1,2011-11-07T05:00:00Z,29.4012,-89.0355,22.2,11111222 
WAVCIS,ioos:station:WAVCIS:CSI16:1,2011-11-07T06:00:00Z,29.4012,-89.0355,22.5,11111222 
WAVCIS,ioos:station:WAVCIS:CSI16:1,2011-11-07T07:00:00Z,29.4012,-89.0355,22.41,11111222 
WAVCIS,ioos:station:WAVCIS:CSI16:1,2011-11-07T08:00:00Z,29.4012,-89.0355,22.35,11111222 
WAVCIS,ioos:station:WAVCIS:CSI16:1,2011-11-07T09:00:00Z,29.4012,-89.0355,22.16,11111222 
WAVCIS,ioos:station:WAVCIS:CSI16:1,2011-11-07T10:00:00Z,29.4012,-89.0355,22.08,11111222 
WAVCIS,ioos:station:WAVCIS:CSI16:1,2011-11-07T11:00:00Z,29.4012,-89.0355,21.85,11111222 
WAVCIS,ioos:station:WAVCIS:CSI16:1,2011-11-07T12:00:00Z,29.4012,-89.0355,21.72,11111222 
WAVCIS,ioos:station:WAVCIS:CSI16:1,2011-11-07T13:00:00Z,29.4012,-89.0355,21.96,11111222 
WAVCIS,ioos:station:WAVCIS:CSI16:1,2011-11-07T14:00:00Z,29.4012,-89.0355,22.42,11111222 
WAVCIS,ioos:station:WAVCIS:CSI16:1,2011-11-07T15:00:00Z,29.4012,-89.0355,22.27,11111222 
WAVCIS,ioos:station:WAVCIS:CSI16:1,2011-11-07T16:00:00Z,29.4012,-89.0355,22.58,11111222 
WAVCIS,ioos:station:WAVCIS:CSI16:1,2011-11-07T17:00:00Z,29.4012,-89.0355,22.05,11111222 
WAVCIS,ioos:station:WAVCIS:CSI16:1,2011-11-07T18:00:00Z,29.4012,-89.0355,22.02,11111222 
WAVCIS,ioos:station:WAVCIS:CSI16:1,2011-11-07T19:00:00Z,29.4012,-89.0355,22.12,11111222 
WAVCIS,ioos:station:WAVCIS:CSI16:1,2011-11-07T20:00:00Z,29.4012,-89.0355,22.09,11111222 
WAVCIS,ioos:station:WAVCIS:CSI16:1,2011-11-07T21:00:00Z,29.4012,-89.0355,22.24,11111222 
WAVCIS,ioos:station:WAVCIS:CSI16:1,2011-11-07T22:00:00Z,29.4012,-89.0355,22.03,11111222 
WAVCIS,ioos:station:WAVCIS:CSI16:1,2011-11-07T23:00:00Z,29.4012,-89.0355,22.01,11111222 
WAVCIS,ioos:station:WAVCIS:CSI16:1,2011-11-08T00:00:00Z,29.4012,-89.0355,22.07,11111222 
WAVCIS,ioos:station:WAVCIS:CSI16:1,2011-11-08T01:00:00Z,29.4012,-89.0355,22.27,11111222 
WAVCIS,ioos:station:WAVCIS:CSI16:1,2011-11-08T02:00:00Z,29.4012,-89.0355,22.38,11111222 
WAVCIS,ioos:station:WAVCIS:CSI16:1,2011-11-08T03:00:00Z,29.4012,-89.0355,22.57,11111222 
WAVCIS,ioos:station:WAVCIS:CSI16:1,2011-11-08T04:00:00Z,29.4012,-89.0355,22.57,11111222 
WAVCIS,ioos:station:WAVCIS:CSI16:1,2011-11-08T05:00:00Z,29.4012,-89.0355,22.6,11111222 
WAVCIS,ioos:station:WAVCIS:CSI16:1,2011-11-08T06:00:00Z,29.4012,-89.0355,22.6,11111222 
WAVCIS,ioos:station:WAVCIS:CSI16:1,2011-11-08T07:00:00Z,29.4012,-89.0355,22.77,11111222 
WAVCIS,ioos:station:WAVCIS:CSI16:1,2011-11-08T08:00:00Z,29.4012,-89.0355,22.94,11111222 
WAVCIS,ioos:station:WAVCIS:CSI16:1,2011-11-08T09:00:00Z,29.4012,-89.0355,22.83,11111222 
WAVCIS,ioos:station:WAVCIS:CSI16:1,2011-11-08T10:00:00Z,29.4012,-89.0355,22.75,11111222 
WAVCIS,ioos:station:WAVCIS:CSI16:1,2011-11-08T11:00:00Z,29.4012,-89.0355,22.8,11111222 
WAVCIS,ioos:station:WAVCIS:CSI16:1,2011-11-08T12:00:00Z,29.4012,-89.0355,22.79,11111222 
WAVCIS,ioos:station:WAVCIS:CSI16:1,2011-11-08T13:00:00Z,29.4012,-89.0355,23.11,11111222 
WAVCIS,ioos:station:WAVCIS:CSI16:1,2011-11-08T14:00:00Z,29.4012,-89.0355,23.58,11111222 
WAVCIS,ioos:station:WAVCIS:CSI16:1,2011-11-08T15:00:00Z,29.4012,-89.0355,23.42,11111222 
WAVCIS,ioos:station:WAVCIS:CSI16:1,2011-11-08T16:00:00Z,29.4012,-89.0355,23.34,11111222 
WAVCIS,ioos:station:WAVCIS:CSI16:1,2011-11-08T17:00:00Z,29.4012,-89.0355,23.45,11111222 
WAVCIS,ioos:station:WAVCIS:CSI16:1,2011-11-08T18:00:00Z,29.4012,-89.0355,23.28,11111222 
WAVCIS,ioos:station:WAVCIS:CSI16:1,2011-11-08T19:00:00Z,29.4012,-89.0355,23.39,11111222 
WAVCIS,ioos:station:WAVCIS:CSI16:1,2011-11-08T20:00:00Z,29.4012,-89.0355,23.51,11111222 
WAVCIS,ioos:station:WAVCIS:CSI16:1,2011-11-08T21:00:00Z,29.4012,-89.0355,23.37,11111222 
WAVCIS,ioos:station:WAVCIS:CSI16:1,2011-11-08T22:00:00Z,29.4012,-89.0355,23.32,11111222 
WAVCIS,ioos:station:WAVCIS:CSI16:1,2011-11-08T23:00:00Z,29.4012,-89.0355,23.26,11111222 
WAVCIS,ioos:station:WAVCIS:CSI16:1,2011-11-09T00:00:00Z,29.4012,-89.0355,23.24,11111222 
WAVCIS,ioos:station:WAVCIS:CSI16:1,2011-11-09T01:00:00Z,29.4012,-89.0355,23.17,11111222 
WAVCIS,ioos:station:WAVCIS:CSI16:1,2011-11-09T02:00:00Z,29.4012,-89.0355,23.22,11111222 
WAVCIS,ioos:station:WAVCIS:CSI16:1,2011-11-09T03:00:00Z,29.4012,-89.0355,23.2,11111222 
WAVCIS,ioos:station:WAVCIS:CSI16:1,2011-11-09T04:00:00Z,29.4012,-89.0355,23.03,11111222 
WAVCIS,ioos:station:WAVCIS:CSI16:1,2011-11-09T05:00:00Z,29.4012,-89.0355,22.97,11111222 
WAVCIS,ioos:station:WAVCIS:CSI16:1,2011-11-09T06:00:00Z,29.4012,-89.0355,22.69,11111222 
WAVCIS,ioos:station:WAVCIS:CSI16:1,2011-11-09T07:00:00Z,29.4012,-89.0355,22.42,11111222 
WAVCIS,ioos:station:WAVCIS:CSI16:1,2011-11-09T08:00:00Z,29.4012,-89.0355,22.33,11111222 
WAVCIS,ioos:station:WAVCIS:CSI16:1,2011-11-09T09:00:00Z,29.4012,-89.0355,22.24,11111222 
WAVCIS,ioos:station:WAVCIS:CSI16:1,2011-11-09T10:00:00Z,29.4012,-89.0355,22.59,11111222 
WAVCIS,ioos:station:WAVCIS:CSI16:1,2011-11-09T11:00:00Z,29.4012,-89.0355,22.89,11111222 
WAVCIS,ioos:station:WAVCIS:CSI16:1,2011-11-09T12:00:00Z,29.4012,-89.0355,21.08,11111222 
WAVCIS,ioos:station:WAVCIS:CSI16:1,2011-11-09T13:00:00Z,29.4012,-89.0355,20.61,11111222 
WAVCIS,ioos:station:WAVCIS:CSI16:1,2011-11-09T14:00:00Z,29.4012,-89.0355,20.71,11111222 
WAVCIS,ioos:station:WAVCIS:CSI16:1,2011-11-09T15:00:00Z,29.4012,-89.0355,20.71,11111222 
WAVCIS,ioos:station:WAVCIS:CSI16:1,2011-11-09T16:00:00Z,29.4012,-89.0355,20.88,11111222 
WAVCIS,ioos:station:WAVCIS:CSI16:1,2011-11-09T17:00:00Z,29.4012,-89.0355,21.29,11111222 
WAVCIS,ioos:station:WAVCIS:CSI16:1,2011-11-09T18:00:00Z,29.4012,-89.0355,21.67,11111222 
WAVCIS,ioos:station:WAVCIS:CSI16:1,2011-11-09T19:00:00Z,29.4012,-89.0355,22.47,11111222 
WAVCIS,ioos:station:WAVCIS:CSI16:1,2011-11-09T20:00:00Z,29.4012,-89.0355,22.37,11111222 
WAVCIS,ioos:station:WAVCIS:CSI16:1,2011-11-09T21:00:00Z,29.4012,-89.0355,18.4,11111222 
WAVCIS,ioos:station:WAVCIS:CSI16:1,2011-11-09T23:00:00Z,29.4012,-89.0355,20.58,11111222 
WAVCIS,ioos:station:WAVCIS:CSI16:1,2011-11-10T00:00:00Z,29.4012,-89.0355,18.2,11111222 
WAVCIS,ioos:station:WAVCIS:CSI16:1,2011-11-10T01:00:00Z,29.4012,-89.0355,19.9,11111222 
WAVCIS,ioos:station:WAVCIS:CSI16:1,2011-11-10T02:00:00Z,29.4012,-89.0355,18.97,11111222 
WAVCIS,ioos:station:WAVCIS:CSI16:1,2011-11-10T03:00:00Z,29.4012,-89.0355,18.62,11111222 
WAVCIS,ioos:station:WAVCIS:CSI16:1,2011-11-10T04:00:00Z,29.4012,-89.0355,17.14,11111222 
WAVCIS,ioos:station:WAVCIS:CSI16:1,2011-11-10T05:00:00Z,29.4012,-89.0355,15.57,11111222 
WAVCIS,ioos:station:WAVCIS:CSI16:1,2011-11-10T06:00:00Z,29.4012,-89.0355,15.36,11111222 
WAVCIS,ioos:station:WAVCIS:CSI16:1,2011-11-10T07:00:00Z,29.4012,-89.0355,14.92,11111222 
WAVCIS,ioos:station:WAVCIS:CSI16:1,2011-11-10T08:00:00Z,29.4012,-89.0355,14.67,11111222 
WAVCIS,ioos:station:WAVCIS:CSI16:1,2011-11-10T09:00:00Z,29.4012,-89.0355,14.23,11111222 
WAVCIS,ioos:station:WAVCIS:CSI16:1,2011-11-10T10:00:00Z,29.4012,-89.0355,13.55,11111222 
WAVCIS,ioos:station:WAVCIS:CSI16:1,2011-11-10T11:00:00Z,29.4012,-89.0355,12.91,11111222 
WAVCIS,ioos:station:WAVCIS:CSI16:1,2011-11-10T12:00:00Z,29.4012,-89.0355,12.59,11111222 
WAVCIS,ioos:station:WAVCIS:CSI16:1,2011-11-10T13:00:00Z,29.4012,-89.0355,12.42,11111222 
WAVCIS,ioos:station:WAVCIS:CSI16:1,2011-11-10T14:00:00Z,29.4012,-89.0355,12.9,11111222 
WAVCIS,ioos:station:WAVCIS:CSI16:1,2011-11-10T15:00:00Z,29.4012,-89.0355,16.6,11111222 
WAVCIS,ioos:station:WAVCIS:CSI16:1,2011-11-10T16:00:00Z,29.4012,-89.0355,12.51,11111222 
WAVCIS,ioos:station:WAVCIS:CSI16:1,2011-11-10T17:00:00Z,29.4012,-89.0355,12.6,11111222 
WAVCIS,ioos:station:WAVCIS:CSI16:1,2011-11-10T18:00:00Z,29.4012,-89.0355,12.39,11111222 
WAVCIS,ioos:station:WAVCIS:CSI16:1,2011-11-10T19:00:00Z,29.4012,-89.0355,12.65,11111222 
WAVCIS,ioos:station:WAVCIS:CSI16:1,2011-11-10T20:00:00Z,29.4012,-89.0355,12.94,11111222 
WAVCIS,ioos:station:WAVCIS:CSI16:1,2011-11-10T22:00:00Z,29.4012,-89.0355,14.4,11111222 
WAVCIS,ioos:station:WAVCIS:CSI16:1,2011-11-10T23:00:00Z,29.4012,-89.0355,15.2,11111222 
WAVCIS,ioos:station:WAVCIS:CSI16:1,2011-11-11T00:00:00Z,29.4012,-89.0355,15.69,11111222 
WAVCIS,ioos:station:WAVCIS:CSI16:1,2011-11-11T01:00:00Z,29.4012,-89.0355,15.57,11111222 
WAVCIS,ioos:station:WAVCIS:CSI16:1,2011-11-11T02:00:00Z,29.4012,-89.0355,14.74,11111222 
WAVCIS,ioos:station:WAVCIS:CSI16:1,2011-11-11T03:00:00Z,29.4012,-89.0355,14.44,11111222 
WAVCIS,ioos:station:WAVCIS:CSI16:1,2011-11-11T04:00:00Z,29.4012,-89.0355,13.88,11111222 
WAVCIS,ioos:station:WAVCIS:CSI16:1,2011-11-11T05:00:00Z,29.4012,-89.0355,13.28,11111222 
WAVCIS,ioos:station:WAVCIS:CSI16:1,2011-11-11T06:00:00Z,29.4012,-89.0355,13.44,11111222 
WAVCIS,ioos:station:WAVCIS:CSI16:1,2011-11-11T07:00:00Z,29.4012,-89.0355,14.08,11111222 
WAVCIS,ioos:station:WAVCIS:CSI16:1,2011-11-11T08:00:00Z,29.4012,-89.0355,15.53,11111222 
WAVCIS,ioos:station:WAVCIS:CSI16:1,2011-11-11T09:00:00Z,29.4012,-89.0355,20.4,11111222 
WAVCIS,ioos:station:WAVCIS:CSI16:1,2011-11-11T10:00:00Z,29.4012,-89.0355,19.83,11111222 
WAVCIS,ioos:station:WAVCIS:CSI16:1,2011-11-11T11:00:00Z,29.4012,-89.0355,23.06,11111222 
WAVCIS,ioos:station:WAVCIS:CSI16:1,2011-11-11T12:00:00Z,29.4012,-89.0355,21.48,11111222 
WAVCIS,ioos:station:WAVCIS:CSI16:1,2011-11-11T13:00:00Z,29.4012,-89.0355,21.52,11111222 
WAVCIS,ioos:station:WAVCIS:CSI16:1,2011-11-11T14:00:00Z,29.4012,-89.0355,23.22,11111222 
WAVCIS,ioos:station:WAVCIS:CSI16:1,2011-11-11T15:00:00Z,29.4012,-89.0355,21.9,11111222 
WAVCIS,ioos:station:WAVCIS:CSI16:1,2011-11-11T16:00:00Z,29.4012,-89.0355,20.86,11111222 
WAVCIS,ioos:station:WAVCIS:CSI16:1,2011-11-11T17:00:00Z,29.4012,-89.0355,18.98,11111222 
WAVCIS,ioos:station:WAVCIS:CSI16:1,2011-11-11T18:00:00Z,29.4012,-89.0355,18.81,11111222 
WAVCIS,ioos:station:WAVCIS:CSI16:1,2011-11-11T19:00:00Z,29.4012,-89.0355,18.1,11111222 
WAVCIS,ioos:station:WAVCIS:CSI16:1,2011-11-11T20:00:00Z,29.4012,-89.0355,17.33,11111222 
WAVCIS,ioos:station:WAVCIS:CSI16:1,2011-11-11T21:00:00Z,29.4012,-89.0355,16.74,11111222 
WAVCIS,ioos:station:WAVCIS:CSI16:1,2011-11-11T22:00:00Z,29.4012,-89.0355,17.87,11111222 
WAVCIS,ioos:station:WAVCIS:CSI16:1,2011-11-11T23:00:00Z,29.4012,-89.0355,15.95,11111222 
WAVCIS,ioos:station:WAVCIS:CSI16:1,2011-11-12T00:00:00Z,29.4012,-89.0355,14.75,11111222 
WAVCIS,ioos:station:WAVCIS:CSI16:1,2011-11-12T01:00:00Z,29.4012,-89.0355,15.36,11111222 
WAVCIS,ioos:station:WAVCIS:CSI16:1,2011-11-12T02:00:00Z,29.4012,-89.0355,14.88,11111222 
WAVCIS,ioos:station:WAVCIS:CSI16:1,2011-11-12T03:00:00Z,29.4012,-89.0355,14.89,11111222 
WAVCIS,ioos:station:WAVCIS:CSI16:1,2011-11-12T04:00:00Z,29.4012,-89.0355,15.18,11111222 
WAVCIS,ioos:station:WAVCIS:CSI16:1,2011-11-12T05:00:00Z,29.4012,-89.0355,15.21,11111222 
WAVCIS,ioos:station:WAVCIS:CSI16:1,2011-11-12T06:00:00Z,29.4012,-89.0355,15.49,11111222 